Greenville, AL

6:27 AM CST on February 20, 2018 (GMT -0600)
Greenville Municipal

Weather History for KPRN - December, 2012

Change the Weather History Date:

Sunday, December 9, 2012

  Actual Average Record
Temperature  
Mean Temperature 66 °F -  
Max Temperature 73 °F 63 °F 81 °F (1986)
Min Temperature 59 °F 42 °F 21 °F (1968)
Cooling Degree Days 1    
Growing Degree Days 16 (Base 50)    
Moisture  
Dew Point 60 °F    
Average Humidity 87    
Maximum Humidity 100    
Minimum Humidity 59    
Precipitation  
Precipitation 0.01 in - - ()
Sea Level Pressure  
Sea Level Pressure 30.02 in    
Wind  
Wind Speed 3 mph (South)    
Max Wind Speed 12 mph    
Max Gust Speed -    
Visibility 6 miles    
Events Fog    
Averages and records for this station are not official NWS values.
T = Trace of Precipitation, MM = Missing Value Source: NWS Daily Summary

Daily Weather History Graph

Daily Weather History Graph

Search for Another Location

Airport or City:

Trip Planner

Search our weather history database for the weather conditions in past years. The results will help you decide how hot, cold, wet, or windy it might be!

Date:

Astronomy

Dec. 09, 2012 Rise Set
Actual Time 6:35 AM CST 4:42 PM CST
Civil Twilight 6:08 AM CST 5:09 PM CST
Nautical Twilight 5:38 AM CST 5:39 PM CST
Astronomical Twilight 5:08 AM CST 6:09 PM CST
Moon 2:18 AM CST (12/9) 1:39 PM CST (12/9)
Length of Visible Light 11h 01m
Length of Day
10h 07m
Waning Crescent, 18% of the Moon is Illuminated
Dec 9
Waning Crescent
Dec 13
New
Dec 19
First Quarter
Dec 28
Full
Jan 4
Last Quarter

Hourly Weather History & Observations

Time (CST) Temp. Dew Point Humidity Pressure Visibility Wind Dir Wind Speed Gust Speed Precip Events Conditions
12:42 AM 60.8 °F 60.8 °F 100% 30.01 in 4.0 mi SE 3.5 mph - N/A   Scattered Clouds
12:50 AM 60.8 °F 60.8 °F 100% 30.01 in 2.5 mi Calm Calm - N/A   Mostly Cloudy
12:51 AM 60.8 °F 60.8 °F 100% 30.01 in 3.0 mi Calm Calm - N/A   Mostly Cloudy
12:56 AM 61.0 °F 60.1 °F 97% 30.00 in 2.0 mi Calm Calm - N/A   Mostly Cloudy
1:03 AM 60.8 °F 60.8 °F 100% 30.01 in 1.5 mi Calm Calm - N/A   Overcast
1:11 AM 60.8 °F 60.8 °F 100% 30.01 in 3.0 mi SE 3.5 mph - N/A   Overcast
1:27 AM 62.6 °F 60.8 °F 94% 30.01 in 1.8 mi Calm Calm - N/A   Overcast
1:40 AM 60.8 °F 60.8 °F 100% 30.01 in 0.5 mi SSE 3.5 mph - N/A Fog Fog
1:56 AM 62.1 °F 61.0 °F 96% 30.00 in 0.5 mi SSE 3.5 mph - N/A Fog Fog
2:56 AM 61.0 °F 60.1 °F 97% 30.00 in 0.5 mi SSE 3.5 mph - N/A Fog Fog
3:32 AM 60.8 °F 59.0 °F 94% 30.01 in 1.8 mi SSE 4.6 mph - 0.01 in   Overcast
3:52 AM 60.8 °F 59.0 °F 94% 30.02 in 3.0 mi Calm Calm - 0.01 in   Overcast
3:53 AM 60.1 °F 59.0 °F 96% 30.01 in 3.0 mi SSE 3.5 mph - 0.01 in   Overcast
4:09 AM 60.8 °F 59.0 °F 94% 30.01 in 1.8 mi SE 3.5 mph - N/A   Overcast
4:45 AM 59.0 °F 59.0 °F 100% 30.03 in 0.5 mi Calm Calm - N/A Fog Fog
4:56 AM 59.0 °F 57.9 °F 96% 30.02 in 0.5 mi SE 3.5 mph - N/A Fog Fog
5:56 AM 59.0 °F 57.9 °F 96% 30.04 in 0.5 mi Calm Calm - N/A Fog Fog
6:35 AM 59.0 °F 57.2 °F 94% 30.06 in 1.0 mi Calm Calm - N/A   Mist
6:56 AM 59.0 °F 57.9 °F 96% 30.06 in 1.5 mi Calm Calm - N/A   Overcast
7:06 AM 59.0 °F 57.2 °F 94% 30.06 in 0.5 mi Calm Calm - N/A Fog Fog
7:56 AM 60.1 °F 59.0 °F 96% 30.07 in 0.8 mi Calm Calm - N/A   Mist
8:06 AM 60.8 °F 59.0 °F 94% 30.08 in 2.0 mi Calm Calm - N/A   Overcast
8:14 AM 60.8 °F 59.0 °F 94% 30.08 in 4.0 mi SSE 3.5 mph - N/A   Overcast
8:23 AM 60.8 °F 60.8 °F 100% 30.08 in 1.8 mi Calm Calm - N/A   Overcast
8:43 AM 60.8 °F 60.8 °F 100% 30.09 in 3.0 mi SSE 4.6 mph - N/A   Overcast
8:56 AM 61.0 °F 60.1 °F 97% 30.08 in 7.0 mi South 4.6 mph - N/A   Overcast
9:40 AM 64.4 °F 60.8 °F 88% 30.09 in 10.0 mi SSE 8.1 mph - N/A   Overcast
9:56 AM 64.9 °F 61.0 °F 87% 30.08 in 10.0 mi South 6.9 mph - N/A   Overcast
10:32 AM 68.0 °F 60.8 °F 78% 30.08 in 10.0 mi Variable 4.6 mph - N/A   Mostly Cloudy
10:56 AM 68.0 °F 60.1 °F 76% 30.06 in 10.0 mi SSW 9.2 mph - N/A   Mostly Cloudy
11:04 AM 69.8 °F 59.0 °F 68% 30.06 in 10.0 mi South 11.5 mph - N/A   Mostly Cloudy
11:13 AM 69.8 °F 59.0 °F 68% 30.06 in 10.0 mi SSW 6.9 mph - N/A   Scattered Clouds
11:24 AM 69.8 °F 59.0 °F 68% 30.05 in 10.0 mi SSW 8.1 mph - N/A   Mostly Cloudy
11:56 AM 71.1 °F 57.9 °F 63% 30.02 in 10.0 mi South 11.5 mph - N/A   Mostly Cloudy
12:29 PM 71.6 °F 57.2 °F 60% 30.02 in 10.0 mi South 8.1 mph - N/A   Scattered Clouds
12:56 PM 71.1 °F 57.0 °F 61% 30.00 in 10.0 mi South 8.1 mph - N/A   Partly Cloudy
1:56 PM 72.0 °F 57.9 °F 61% 29.99 in 10.0 mi SSW 9.2 mph - N/A   Mostly Cloudy
2:56 PM 73.0 °F 57.9 °F 59% 29.98 in 10.0 mi SW 10.4 mph - N/A   Partly Cloudy
3:56 PM 72.0 °F 59.0 °F 64% 29.97 in 10.0 mi Calm Calm - N/A   Partly Cloudy
4:56 PM 69.1 °F 59.0 °F 70% 29.97 in 10.0 mi SSE 3.5 mph - N/A   Partly Cloudy
5:56 PM 66.9 °F 60.1 °F 79% 29.98 in 10.0 mi SSE 3.5 mph - N/A   Mostly Cloudy
6:56 PM 68.0 °F 60.1 °F 76% 29.97 in 10.0 mi South 5.8 mph - N/A   Mostly Cloudy
7:56 PM 66.9 °F 61.0 °F 81% 29.97 in 10.0 mi South 5.8 mph - N/A   Partly Cloudy
8:56 PM 66.0 °F 61.0 °F 84% 29.97 in 10.0 mi South 6.9 mph - N/A   Mostly Cloudy
9:45 PM 66.2 °F 60.8 °F 83% 29.97 in 10.0 mi SSE 6.9 mph - N/A   Scattered Clouds
9:56 PM 66.0 °F 61.0 °F 84% 29.96 in 10.0 mi South 5.8 mph - N/A   Partly Cloudy
10:48 PM 64.4 °F 62.6 °F 94% 29.96 in 10.0 mi South 8.1 mph - N/A   Mostly Cloudy
10:56 PM 66.9 °F 62.1 °F 84% 29.95 in 10.0 mi South 6.9 mph - N/A   Mostly Cloudy
11:24 PM 64.4 °F 62.6 °F 94% 29.94 in 10.0 mi SSE 8.1 mph - N/A   Mostly Cloudy
11:37 PM 64.4 °F 62.6 °F 94% 29.94 in 10.0 mi South 8.1 mph - N/A   Mostly Cloudy
11:56 PM 66.0 °F 63.0 °F 90% 29.93 in 10.0 mi South 8.1 mph - N/A   Overcast